| time (UTC) | temp C | wind direction | speed KPH | gust KPH | rain 1hr cm | rain 24hr cm | rain mn cm | humidity % | barometer mb |
| 20260506204018 | 20 | 0.0 | 3.2 | 0.00 | 0.00 | 0.00 | 56 | 1016.8 | |
| 20260506203018 | 21 | 0.0 | 6.4 | 0.00 | 0.00 | 0.00 | 56 | 1016.8 | |
| 20260506132018 | 12 | 0.0 | 0.0 | 0.00 | 0.00 | 0.00 | 27 | 1016.2 | |
| 20260506131017 | 12 | 0.0 | 0.0 | 0.00 | 0.00 | 0.00 | 27 | 1016.1 | |
| 20260506130018 | 12 | 0.0 | 0.0 | 0.00 | 0.00 | 0.00 | 27 | 1016.1 | |
| 20260506125017 | 12 | 0.0 | 0.0 | 0.00 | 0.00 | 0.00 | 27 | 1015.9 | |
| 20260506124017 | 12 | 0.0 | 0.0 | 0.00 | 0.00 | 0.00 | 27 | 1015.9 | |
| 20260506123039 | 12 | 0.0 | 0.0 | 0.00 | 0.00 | 0.00 | 27 | 1015.9 | |
| 20260506122019 | 12 | 0.0 | 0.0 | 0.00 | 0.00 | 0.00 | 27 | 1015.9 | |
| 20260506121017 | 12 | 0.0 | 0.0 | 0.00 | 0.00 | 0.00 | 27 | 1015.9 | |
| 20260506120037 | 12 | 0.0 | 0.0 | 0.00 | 0.00 | 0.00 | 26 | 1015.9 | |
| 20260506115018 | 12 | 0.0 | 0.0 | 0.00 | 0.00 | 0.00 | 26 | 1016.0 | |
| 20260506114018 | 12 | 0.0 | 0.0 | 0.00 | 0.00 | 0.00 | 26 | 1016.0 | |
| 20260506113017 | 12 | 0.0 | 0.0 | 0.00 | 0.00 | 0.00 | 26 | 1015.9 | |
| 20260506112037 | 12 | 0.0 | 0.0 | 0.00 | 0.00 | 0.00 | 26 | 1016.0 | |
| 20260506111037 | 12 | 0.0 | 0.0 | 0.00 | 0.00 | 0.00 | 26 | 1015.9 | |
| 20260506110017 | 12 | 0.0 | 0.0 | 0.00 | 0.00 | 0.00 | 26 | 1015.8 | |
| 20260506105019 | 12 | 0.0 | 0.0 | 0.00 | 0.00 | 0.00 | 26 | 1015.7 | |
| 20260506104017 | 12 | 0.0 | 0.0 | 0.00 | 0.00 | 0.00 | 26 | 1015.6 | |
| 20260506103017 | 12 | 0.0 | 0.0 | 0.00 | 0.00 | 0.00 | 26 | 1015.5 | |
| 20260506102017 | 12 | 0.0 | 0.0 | 0.00 | 0.00 | 0.00 | 26 | 1015.5 | |
| 20260506101057 | 12 | 0.0 | 0.0 | 0.00 | 0.00 | 0.00 | 26 | 1015.5 | |
| 20260506100017 | 12 | 0.0 | 0.0 | 0.00 | 0.00 | 0.00 | 26 | 1015.6 | |
| 20260506095057 | 12 | 0.0 | 0.0 | 0.00 | 0.00 | 0.00 | 26 | 1015.5 | |
| 20260506094017 | 12 | 0.0 | 0.0 | 0.00 | 0.00 | 0.00 | 26 | 1015.6 | |
| 20260506093015 | 12 | 0.0 | 0.0 | 0.00 | 0.00 | 0.00 | 26 | 1015.5 | |
| 20260506092016 | 12 | 0.0 | 0.0 | 0.00 | 0.00 | 0.00 | 26 | 1015.6 | |
| 20260506091017 | 12 | 0.0 | 0.0 | 0.00 | 0.00 | 0.00 | 26 | 1015.6 | |
| 20260506090020 | 12 | 0.0 | 0.0 | 0.00 | 0.00 | 0.00 | 26 | 1015.7 | |
| 20260506085020 | 12 | 0.0 | 0.0 | 0.00 | 0.00 | 0.00 | 26 | 1015.8 | |
| 20260506084026 | 12 | 0.0 | 0.0 | 0.00 | 0.00 | 0.00 | 26 | 1016.0 | |
| 20260506083021 | 12 | 0.0 | 0.0 | 0.00 | 0.00 | 0.00 | 26 | 1016.0 | |
| 20260506082026 | 12 | 0.0 | 0.0 | 0.00 | 0.00 | 0.00 | 26 | 1016.1 | |
| 20260506081025 | 12 | 0.0 | 0.0 | 0.00 | 0.00 | 0.00 | 26 | 1016.0 | |
| 20260506073018 | 13 | 0.0 | 0.0 | 0.00 | 0.00 | 0.00 | 27 | 1015.9 | |
| 20260506072017 | 13 | 0.0 | 0.0 | 0.00 | 0.00 | 0.00 | 27 | 1015.7 | |
| 20260506071018 | 13 | 0.0 | 0.0 | 0.00 | 0.00 | 0.00 | 27 | 1015.5 | |
| 20260506062019 | 14 | 0.0 | 0.0 | 0.00 | 0.00 | 0.00 | 30 | 1015.1 | |
| 20260506061059 | 14 | 0.0 | 0.0 | 0.00 | 0.00 | 0.00 | 31 | 1015.0 | |
| 20260506051017 | 15 | 0.0 | 0.0 | 0.00 | 0.00 | 0.00 | 45 | 1014.6 | |
| 20260506045038 | 16 | 0.0 | 0.0 | 0.00 | 0.00 | 0.00 | 56 | 1014.3 | |
| 20260506044017 | 16 | 0.0 | 0.0 | 0.00 | 0.00 | 0.00 | 59 | 1014.1 | |
| 20260506043018 | 16 | 0.0 | 0.0 | 0.00 | 0.00 | 0.00 | 58 | 1014.1 | |
| 20260506042018 | 16 | 0.0 | 0.0 | 0.00 | 0.00 | 0.00 | 58 | 1013.9 | |
| 20260506041017 | 16 | 0.0 | 0.0 | 0.00 | 0.00 | 0.00 | 58 | 1013.9 | |
| 20260506040017 | 16 | 0.0 | 0.0 | 0.00 | 0.00 | 0.00 | 59 | 1013.6 | |
| 20260506035037 | 16 | 0.0 | 0.0 | 0.00 | 0.00 | 0.00 | 58 | 1013.4 | |
| 20260506034017 | 16 | 0.0 | 0.0 | 0.00 | 0.00 | 0.00 | 57 | 1013.3 | |
| 20260506033037 | 17 | 0.0 | 0.0 | 0.00 | 0.00 | 0.00 | 57 | 1013.2 | |
| 20260506032038 | 16 | 0.0 | 3.2 | 0.00 | 0.00 | 0.00 | 58 | 1013.1 | |
| 20260506031017 | 16 | 0.0 | 0.0 | 0.00 | 0.00 | 0.00 | 56 | 1012.9 | |
| 20260506030038 | 17 | 0.0 | 0.0 | 0.00 | 0.00 | 0.00 | 55 | 1012.8 | |
| 20260506025038 | 17 | 0.0 | 0.0 | 0.00 | 0.00 | 0.00 | 56 | 1012.6 | |
| 20260506024017 | 17 | 0.0 | 0.0 | 0.00 | 0.00 | 0.00 | 57 | 1012.4 | |
| 20260506023018 | 17 | 0.0 | 0.0 | 0.00 | 0.00 | 0.00 | 55 | 1012.3 | |
| 20260506022017 | 17 | 0.0 | 0.0 | 0.00 | 0.00 | 0.00 | 56 | 1012.4 | |
| 20260506021037 | 17 | 0.0 | 0.0 | 0.00 | 0.00 | 0.00 | 58 | 1012.3 | |
| 20260506020018 | 18 | 0.0 | 0.0 | 0.00 | 0.00 | 0.00 | 59 | 1012.2 | |
| 20260506015018 | 19 | 0.0 | 0.0 | 0.00 | 0.00 | 0.00 | 59 | 1012.2 | |
| 20260506014018 | 19 | 0.0 | 0.0 | 0.00 | 0.00 | 0.00 | 60 | 1012.2 | |
| 20260506013058 | 19 | 0.0 | 0.0 | 0.00 | 0.00 | 0.00 | 60 | 1012.1 | |
| 20260506012118 | 19 | 0.0 | 0.0 | 0.00 | 0.00 | 0.00 | 60 | 1012.1 | |
| 20260506011018 | 19 | 0.0 | 0.0 | 0.00 | 0.00 | 0.00 | 60 | 1012.2 | |
| 20260506010017 | 19 | 0.0 | 0.0 | 0.00 | 0.00 | 0.00 | 60 | 1012.1 | |
| 20260506005017 | 20 | 0.0 | 0.0 | 0.00 | 0.00 | 0.00 | 60 | 1012.1 | |
| 20260506004017 | 20 | 0.0 | 0.0 | 0.00 | 0.00 | 0.00 | 60 | 1012.0 | |
| 20260506003017 | 19 | 0.0 | 0.0 | 0.00 | 0.00 | 0.00 | 61 | 1012.1 | |
| 20260506002017 | 19 | 0.0 | 0.0 | 0.00 | 0.00 | 0.00 | 61 | 1012.0 | |
| 20260506001017 | 20 | 0.0 | 0.0 | 0.00 | 0.00 | 0.00 | 61 | 1011.9 | |
| 20260506000017 | 20 | 0.0 | 3.2 | 0.00 | 0.00 | 0.00 | 61 | 1011.8 | |
| 20260505235018 | 20 | 23 | 1.6 | 3.2 | 0.00 | 0.00 | 0.00 | 61 | 1011.8 |
| 20260505234017 | 20 | 0.0 | 3.2 | 0.00 | 0.00 | 0.00 | 61 | 1011.8 | |
| 20260505233037 | 21 | 0.0 | 0.0 | 0.00 | 0.00 | 0.00 | 60 | 1011.9 | |
| 20260505232017 | 21 | 0.0 | 1.6 | 0.00 | 0.00 | 0.00 | 58 | 1011.8 | |
| 20260505231017 | 22 | 23 | 1.6 | 6.4 | 0.00 | 0.00 | 0.00 | 56 | 1011.8 |
| 20260505230037 | 22 | 293 | 1.6 | 8.0 | 0.00 | 0.00 | 0.00 | 54 | 1012.0 |
| 20260505225016 | 22 | 270 | 1.6 | 9.7 | 0.00 | 0.00 | 0.00 | 55 | 1011.9 |
| 20260505224016 | 22 | 0.0 | 6.4 | 0.00 | 0.00 | 0.00 | 57 | 1012.0 | |
| 20260505223037 | 21 | 270 | 1.6 | 8.0 | 0.00 | 0.00 | 0.00 | 58 | 1012.0 |
| 20260505222017 | 20 | 0.0 | 3.2 | 0.00 | 0.00 | 0.00 | 60 | 1012.2 | |
| 20260505221016 | 20 | 0.0 | 3.2 | 0.00 | 0.00 | 0.00 | 60 | 1012.1 | |
| 20260505220016 | 20 | 0.0 | 3.2 | 0.00 | 0.00 | 0.00 | 60 | 1012.3 | |
| 20260505215037 | 20 | 0.0 | 3.2 | 0.00 | 0.00 | 0.00 | 60 | 1012.4 | |
| 20260505214017 | 20 | 0.0 | 6.4 | 0.00 | 0.00 | 0.00 | 60 | 1012.5 | |
| 20260505213017 | 20 | 0.0 | 6.4 | 0.00 | 0.00 | 0.00 | 60 | 1012.6 | |
| 20260505212016 | 20 | 0.0 | 3.2 | 0.00 | 0.00 | 0.00 | 60 | 1012.7 | |
| 20260505211016 | 20 | 0.0 | 3.2 | 0.00 | 0.00 | 0.00 | 61 | 1012.8 | |
| 20260505210018 | 19 | 0.0 | 3.2 | 0.00 | 0.00 | 0.00 | 61 | 1012.8 | |
| 20260505205016 | 19 | 0.0 | 3.2 | 0.00 | 0.00 | 0.00 | 61 | 1012.9 |